Погода в Лаксэльве

Норвегия     70°03′21″N   24°57′07″E
темп.,
°C
ветер,
м/с
пор.,
м/с
влажн.,
%
обл.,
%
осадки,
мм/ч
давл.,
гПа
погр.,
м
25 февраля, чт
чт2501:00−7ю91294100 0.4 994196
04:00−7ю91195100 0.0 992169
07:00−5ю9129594 0.0 991227
10:00−5ююв8109668 0.0 989147
13:00−2ю799383 0.0 988157
16:00−2ююз4696100 0.3 98793
19:00−1юз3495100 0.8 98866
22:00−3юз3394100 0.1 98836
26 февраля, пт
пт2601:00−4юз339193 0.1 98940
04:00−4ююз349029 0.0 98971
07:00−5ю679150 0.1 99091
10:00−3сз2298100 1.1 99477
13:00−1с131799100 3.3 1000627
16:00−2ссз101593100 1.1 1006665
19:00−4сз4995100 1.3 1009353
22:00−5сз339699 0.1 101149
27 февраля, сб
сб2701:00−4зсз5109398 0.6 1013210
04:00−3сз8149495 0.8 1014611
07:00−5сз599495 1.1 1015230
10:00−5сз239499 0.1 101687
13:00−4юз129698 0.3 101667
16:00−6ю458983 0.2 101348
19:00−5ю798491 0.2 1010171
22:00−4ю71094100 1.6 1007220
28 февраля, вс
вс2801:00−4ю5591100 1.7 100565
04:00−5ю5588100 0.0 100358
07:00−3ююз4593100 0.0 100364
10:00+1з31498100 0.5 1004642
13:00+1зюз1292100 0.6 1004101
16:00+2з41695100 0.3 1002633
19:00+2юз51597100 0.9 1001533
22:00+1ююз5998100 2.9 997227
1 марта, пн
пн101:000зсз91897100 4.7 995818
04:00−1зсз13208395 1.5 996945
07:00−2зсз13208860 1.7 996831
10:00−2зсз11188212 0.0 996800
13:00−2з615935 0.9 996862
16:00−4з359232 0.1 99584
19:00−3зсз588449 0.6 995133
22:00−1зсз71591100 1.3 996800